GW2129 Weather Reports


Display with metric or nautical units.
time (UTC)temp
F
wind
direction
speed
MPH
gust
MPH
rain 1hr
in
rain 24hr
in
rain mn
in
humidity
%
barometer
mb
20260509031240 75 117 0.0 1.0 0.00 0.00 0.00 89 1011.0
20260509030738 75 310 0.0 1.0 0.00 0.00 0.00 88 1010.8
20260509030235 75 241 1.0 1.0 0.00 0.00 0.00 88 1010.9
20260509025732 75 135 0.0 1.0 0.00 0.00 0.00 88 1010.6
20260509025227 75 131 0.0 2.0 0.00 0.00 0.00 88 1010.7
20260509024722 75 224 0.0 1.0 0.00 0.00 0.00 88 1010.8
20260509024218 75 130 0.0 1.0 0.00 0.00 0.00 88 1010.5
20260509023716 75 128 0.0 2.0 0.00 0.00 0.00 87 1010.3
20260509023213 75 130 0.0 2.0 0.00 0.00 0.00 87 1010.4
20260509022709 75 147 0.0 2.0 0.00 0.00 0.00 87 1010.4
20260509022207 75 136 1.0 2.0 0.00 0.00 0.00 87 1010.3
20260509021704 75 122 2.0 3.0 0.00 0.00 0.00 86 1010.3
20260509021201 75 125 1.0 4.0 0.00 0.00 0.00 86 1010.0
20260509020659 75 133 0.0 3.0 0.00 0.00 0.00 86 1009.8
20260509020156 76 86 3.0 4.0 0.00 0.00 0.00 85 1009.7
20260509015654 76 131 0.0 2.0 0.00 0.00 0.00 85 1009.9
20260509015152 76 126 0.0 2.0 0.00 0.00 0.00 85 1009.6
20260509014648 76 139 1.0 1.0 0.00 0.00 0.00 85 1009.8
20260509014144 75 108 1.0 1.0 0.00 0.00 0.00 85 1009.7
20260509013642 76 304 0.0 0.0 0.00 0.00 0.00 85 1009.7
20260509013138 76 117 0.0 2.0 0.00 0.00 0.00 84 1009.5
20260509012634 76 180 0.0 2.0 0.00 0.00 0.00 84 1009.5
20260509012131 76 173 0.0 2.0 0.00 0.00 0.00 84 1009.6
20260509011630 76 109 0.0 1.0 0.00 0.00 0.00 84 1009.6
20260509011126 76 132 0.0 2.0 0.00 0.00 0.00 84 1009.5
20260509010624 76 138 2.0 4.0 0.00 0.00 0.00 84 1009.5
20260509010120 76 151 2.0 3.0 0.00 0.00 0.00 83 1009.5
20260509005618 76 148 0.0 2.0 0.00 0.00 0.00 83 1009.4
20260509005113 77 159 3.0 3.0 0.00 0.00 0.00 83 1009.3
20260509004610 77 188 0.0 2.0 0.00 0.00 0.00 83 1009.5
20260509004107 77 117 0.0 5.0 0.00 0.00 0.00 82 1009.5
20260509003606 77 102 2.0 2.0 0.00 0.00 0.00 83 1009.4
20260509003102 77 98 0.0 2.0 0.00 0.00 0.00 82 1009.6
20260509002600 77 96 1.0 3.0 0.00 0.00 0.00 82 1009.4
20260509002057 77 132 2.0 5.0 0.00 0.00 0.00 82 1009.3
20260509001554 77 127 3.0 5.0 0.00 0.00 0.00 82 1009.5
20260509001050 77 115 0.0 4.0 0.00 0.00 0.00 82 1009.4
20260509000549 77 110 2.0 3.0 0.00 0.00 0.00 82 1009.3
20260509000044 77 133 2.0 4.0 0.00 0.00 0.00 82 1009.4
20260508235542 77 118 1.0 5.0 0.00 0.00 0.00 81 1009.4
20260508235038 78 282 0.0 1.0 0.00 0.00 0.00 81 1009.3
20260508234536 77 138 3.0 5.0 0.00 0.00 0.00 81 1009.4
20260508234033 77 140 1.0 4.0 0.00 0.00 0.00 82 1009.5
20260508233532 77 129 1.0 4.0 0.00 0.00 0.00 82 1009.2
20260508233029 77 103 3.0 5.0 0.00 0.00 0.00 81 1009.3
20260508232526 77 192 1.0 5.0 0.00 0.00 0.00 81 1009.4
20260508232023 78 134 2.0 3.0 0.00 0.00 0.00 80 1009.3
20260508231520 77 117 1.0 4.0 0.00 0.00 0.00 81 1009.2
20260508231017 77 159 3.0 4.0 0.00 0.00 0.00 81 1009.3
20260508230514 77 112 3.0 6.0 0.00 0.00 0.00 81 1009.7
20260508230011 77 99 0.0 5.0 0.00 0.00 0.00 81 1009.6
20260508225508 77 62 0.0 4.0 0.00 0.00 0.00 80 1009.6
20260508225004 78 133 5.0 6.0 0.00 0.00 0.00 80 1009.8
20260508224503 78 130 0.0 3.0 0.00 0.00 0.00 79 1009.7
20260508223959 78 81 0.0 3.0 0.00 0.00 0.00 79 1009.8
20260508223457 78 124 2.0 5.0 0.00 0.00 0.00 79 1009.7
20260508222954 78 134 0.0 3.0 0.00 0.00 0.00 78 1009.8
20260508222452 79 115 3.0 3.0 0.00 0.00 0.00 77 1009.9
20260508221948 79 263 1.0 6.0 0.00 0.00 0.00 77 1009.7
20260508221444 79 121 3.0 3.0 0.00 0.00 0.00 77 1009.8
20260508220940 78 124 2.0 4.0 0.00 0.00 0.00 78 1009.7
20260508220437 79 114 3.0 6.0 0.00 0.00 0.00 76 1009.8
20260508215933 79 292 0.0 6.0 0.00 0.00 0.00 75 1010.0
20260508215431 79 142 3.0 7.0 0.00 0.00 0.00 75 1009.8
20260508214927 79 98 0.0 6.0 0.00 0.00 0.00 75 1009.8
20260508214425 80 335 1.0 3.0 0.00 0.00 0.00 74 1009.8
20260508213920 79 269 0.0 3.0 0.00 0.00 0.00 75 1009.9
20260508213418 79 290 0.0 2.0 0.00 0.00 0.00 76 1009.9
20260508212914 78 225 5.0 5.0 0.00 0.00 0.00 76 1010.0
20260508212410 78 132 3.0 4.0 0.00 0.00 0.00 77 1010.1
20260508211906 77 55 0.0 4.0 0.00 0.00 0.00 77 1010.3
20260508211402 78 114 0.0 3.0 0.00 0.00 0.00 76 1010.3
20260508210900 78 86 3.0 5.0 0.00 0.00 0.00 75 1010.5
20260508210356 79 220 1.0 5.0 0.00 0.00 0.00 74 1010.6
20260508205852 78 124 1.0 4.0 0.00 0.00 0.00 75 1010.5
20260508205349 78 120 2.0 4.0 0.00 0.00 0.00 75 1010.5
20260508204845 78 106 3.0 5.0 0.00 0.00 0.00 75 1010.5
20260508204343 78 122 1.0 3.0 0.00 0.00 0.00 75 1010.3
20260508203838 78 136 3.0 7.0 0.00 0.00 0.00 75 1010.4
20260508203335 79 107 2.0 4.0 0.00 0.00 0.00 73 1010.7
20260508202830 78 141 2.0 7.0 0.00 0.00 0.00 74 1010.7
20260508202328 78 147 1.0 2.0 0.00 0.00 0.00 74 1010.7
20260508201825 78 146 1.0 3.0 0.00 0.00 0.00 72 1010.8
20260508201322 79 214 2.0 4.0 0.00 0.00 0.00 72 1010.9
20260508200818 78 119 1.0 4.0 0.00 0.00 0.00 73 1010.9
20260508200315 78 163 1.0 5.0 0.00 0.00 0.00 74 1010.8
20260508195811 78 267 2.0 4.0 0.00 0.00 0.00 73 1010.7
20260508195308 77 157 2.0 3.0 0.00 0.00 0.00 73 1011.1
20260508194804 78 97 2.0 3.0 0.00 0.00 0.00 72 1011.3
20260508194301 78 133 1.0 3.0 0.00 0.00 0.00 72 1011.2
20260508193758 77 201 1.0 5.0 0.00 0.00 0.00 74 1010.9
20260508193255 76 56 0.0 5.0 0.00 0.00 0.00 75 1011.0
20260508192751 78 83 5.0 5.0 0.00 0.00 0.00 72 1011.0
20260508192248 77 110 0.0 2.0 0.00 0.00 0.00 73 1011.1
20260508191746 76 6 2.0 3.0 0.00 0.00 0.00 74 1011.2
20260508191243 75 94 4.0 4.0 0.00 0.00 0.00 74 1011.3
20260508190740 76 119 1.0 3.0 0.00 0.00 0.00 73 1011.6
20260508190235 76 239 2.0 2.0 0.00 0.00 0.00 73 1011.6
20260508185732 74 220 0.0 3.0 0.00 0.00 0.00 76 1011.6
20260508185230 73 241 0.0 3.0 0.00 0.00 0.00 77 1011.5
20260508184727 73 66 1.0 2.0 0.00 0.00 0.00 76 1011.9
20260508184224 73 221 0.0 3.0 0.00 0.00 0.00 76 1011.6
20260508183721 73 116 2.0 3.0 0.00 0.00 0.00 77 1011.8
20260508183217 72 119 0.0 1.0 0.00 0.00 0.00 78 1012.0
20260508182713 72 89 0.0 4.0 0.00 0.00 0.00 77 1011.9
20260508182210 72 89 0.0 2.0 0.00 0.00 0.00 77 1012.0
20260508181706 72 99 2.0 3.0 0.00 0.00 0.00 77 1012.2
20260508181203 72 103 3.0 3.0 0.00 0.00 0.00 77 1012.1
20260508180659 72 92 4.0 5.0 0.00 0.00 0.00 76 1012.2
20260508180157 72 110 0.0 3.0 0.00 0.00 0.00 77 1012.4
20260508175653 72 100 2.0 3.0 0.00 0.00 0.00 78 1012.3
20260508175149 72 351 1.0 2.0 0.00 0.00 0.00 77 1012.5
20260508174648 71 53 0.0 3.0 0.00 0.00 0.00 77 1012.3
20260508174144 72 72 1.0 2.0 0.00 0.00 0.00 77 1012.3
20260508173641 71 315 0.0 3.0 0.00 0.00 0.00 76 1012.5
20260508173137 70 116 0.0 3.0 0.00 0.00 0.00 78 1012.5
20260508172629 71 77 4.0 4.0 0.00 0.00 0.00 78 1012.7
20260508172125 71 110 1.0 3.0 0.00 0.00 0.00 78 1012.7
20260508171622 70 127 0.0 4.0 0.00 0.00 0.00 78 1012.8
20260508171118 69 101 1.0 2.0 0.00 0.00 0.00 79 1012.6
20260508170616 69 75 2.0 3.0 0.00 0.00 0.00 79 1012.9
20260508170113 69 100 3.0 3.0 0.00 0.00 0.00 79 1012.8
20260508165610 69 110 4.0 4.0 0.00 0.00 0.00 79 1012.8
20260508165107 69 57 3.0 5.0 0.00 0.00 0.00 79 1012.7
20260508164603 69 3 1.0 2.0 0.00 0.00 0.00 79 1012.8
20260508164100 69 57 2.0 5.0 0.00 0.00 0.00 78 1012.7
20260508163557 69 95 1.0 2.0 0.00 0.00 0.00 78 1012.9
20260508163054 69 352 2.0 2.0 0.00 0.00 0.00 78 1012.9
20260508162551 68 47 3.0 4.0 0.00 0.00 0.00 79 1013.0
20260508162048 68 68 3.0 3.0 0.00 0.00 0.00 80 1012.9
20260508161545 68 89 3.0 3.0 0.00 0.00 0.00 79 1013.1
20260508161042 68 98 2.0 4.0 0.00 0.00 0.00 79 1013.2
20260508160541 68 285 0.0 3.0 0.00 0.00 0.00 79 1013.2
20260508160037 68 17 2.0 3.0 0.00 0.00 0.00 79 1013.2
20260508155534 67 316 2.0 3.0 0.00 0.00 0.00 80 1013.5
20260508155031 67 103 2.0 4.0 0.00 0.00 0.00 79 1013.4
20260508154528 68 41 3.0 5.0 0.00 0.00 0.00 79 1013.5
20260508154025 67 6 4.0 7.0 0.00 0.00 0.00 78 1013.2
20260508153522 67 60 7.0 8.0 0.00 0.00 0.00 78 1013.4
20260508153019 67 51 4.0 5.0 0.00 0.00 0.00 79 1013.5
20260508152516 66 32 3.0 5.0 0.00 0.00 0.00 79 1013.8
20260508152011 66 358 2.0 4.0 0.00 0.00 0.00 80 1013.9
20260508151508 65 353 1.0 3.0 0.00 0.00 0.00 81 1014.0
20260508151004 65 100 3.0 4.0 0.00 0.00 0.00 81 1014.1
20260508150502 64 337 3.0 4.0 0.00 0.00 0.00 81 1013.8
20260508145957 64 76 4.0 4.0 0.00 0.00 0.00 81 1014.2
20260508145454 64 344 2.0 3.0 0.00 0.00 0.00 81 1014.1
20260508144950 64 324 4.0 5.0 0.00 0.00 0.00 82 1014.0
20260508144448 64 311 2.0 3.0 0.00 0.00 0.00 82 1013.9
20260508143946 64 18 3.0 4.0 0.00 0.00 0.00 82 1014.1
20260508143443 64 1 2.0 4.0 0.00 0.00 0.00 82 1014.0
20260508142939 64 6 3.0 4.0 0.00 0.00 0.00 82 1013.8
20260508142437 63 41 3.0 5.0 0.00 0.00 0.00 82 1013.9
20260508141933 63 15 1.0 3.0 0.00 0.00 0.00 83 1014.0
20260508141429 63 328 0.0 5.0 0.00 0.00 0.00 82 1013.9
20260508140927 63 343 2.0 5.0 0.00 0.00 0.00 83 1014.0
20260508140424 63 34 4.0 6.0 0.00 0.00 0.00 83 1014.0
20260508135920 63 0 3.0 4.0 0.00 0.00 0.00 83 1013.9
20260508135417 63 53 1.0 4.0 0.00 0.00 0.00 83 1013.8
20260508134913 63 29 1.0 6.0 0.00 0.00 0.00 84 1014.0
20260508134409 63 72 3.0 4.0 0.00 0.00 0.00 84 1013.9
20260508133906 62 4 3.0 4.0 0.00 0.00 0.00 84 1014.2
20260508133404 62 0 2.0 4.0 0.00 0.00 0.00 84 1014.2
20260508132901 62 67 3.0 5.0 0.00 0.00 0.00 84 1014.1
20260508132359 62 321 0.0 4.0 0.00 0.00 0.00 84 1013.9
20260508131855 62 1 2.0 4.0 0.00 0.00 0.00 84 1014.0
20260508131350 62 336 3.0 4.0 0.00 0.00 0.00 84 1014.1
20260508130848 62 344 2.0 3.0 0.00 0.00 0.00 84 1014.3
20260508130344 62 336 3.0 5.0 0.00 0.00 0.00 84 1014.3
20260508125840 62 21 4.0 5.0 0.00 0.00 0.00 84 1014.2
20260508125336 62 326 2.0 6.0 0.00 0.00 0.00 85 1014.3
20260508124835 62 354 3.0 6.0 0.00 0.00 0.00 85 1014.3
20260508124332 62 20 3.0 7.0 0.00 0.00 0.00 85 1014.0
20260508123830 62 353 3.0 6.0 0.00 0.00 0.00 86 1014.0
20260508123328 62 5 4.0 5.0 0.00 0.00 0.00 86 1013.9
20260508122824 61 329 5.0 9.0 0.00 0.00 0.00 86 1014.0
20260508122321 61 312 3.0 5.0 0.00 0.00 0.00 87 1013.7
20260508121818 61 5 3.0 7.0 0.00 0.00 0.00 87 1013.8
20260508121317 61 354 2.0 4.0 0.00 0.00 0.00 87 1013.8
20260508120814 61 3 3.0 5.0 0.00 0.00 0.00 87 1013.7
20260508120312 61 5 5.0 5.0 0.00 0.00 0.00 88 1013.6
20260508115809 61 314 4.0 5.0 0.00 0.00 0.00 88 1014.1
20260508115307 61 4 3.0 5.0 0.00 0.00 0.00 88 1013.8
20260508114803 61 11 2.0 3.0 0.00 0.00 0.00 88 1013.9
20260508114300 61 21 2.0 5.0 0.00 0.00 0.00 87 1013.7
20260508113756 61 78 3.0 6.0 0.00 0.00 0.00 86 1014.1
20260508113254 62 63 2.0 5.0 0.00 0.00 0.00 85 1014.0
20260508112750 62 282 5.0 6.0 0.00 0.00 0.00 83 1014.7
20260508112247 62 308 2.0 5.0 0.00 0.00 0.00 82 1015.1
20260508111743 63 328 2.0 3.0 0.00 0.00 0.00 80 1015.2
20260508111241 63 315 4.0 7.0 0.00 0.00 0.00 80 1015.0
20260508110738 63 339 2.0 6.0 0.00 0.00 0.00 79 1015.1
20260508110235 63 331 4.0 6.0 0.00 0.00 0.00 79 1014.9
20260508105730 63 350 3.0 4.0 0.00 0.00 0.00 79 1014.7
20260508105227 63 15 3.0 4.0 0.00 0.00 0.00 79 1014.7
20260508104724 63 340 3.0 4.0 0.00 0.00 0.00 79 1014.5
20260508104221 63 24 2.0 5.0 0.00 0.00 0.00 79 1014.3
20260508103719 63 31 4.0 4.0 0.00 0.00 0.00 79 1014.3
20260508103215 63 352 4.0 4.0 0.00 0.00 0.00 79 1014.3
20260508102712 63 333 3.0 5.0 0.00 0.00 0.00 79 1014.4
20260508102210 63 17 4.0 5.0 0.00 0.00 0.00 79 1014.1
20260508101707 62 357 3.0 5.0 0.00 0.00 0.00 80 1014.2
20260508101205 62 323 2.0 5.0 0.00 0.00 0.00 80 1014.1
20260508100702 62 349 3.0 4.0 0.00 0.00 0.00 80 1014.0
20260508100200 62 41 4.0 5.0 0.00 0.00 0.00 80 1013.8
20260508095656 62 66 2.0 3.0 0.00 0.00 0.00 80 1014.2
20260508095154 62 60 0.0 3.0 0.00 0.00 0.00 80 1014.1
20260508094650 62 353 0.0 5.0 0.00 0.00 0.00 80 1014.0
20260508094147 62 312 4.0 5.0 0.00 0.00 0.00 80 1014.0
20260508093644 62 320 1.0 5.0 0.00 0.00 0.00 80 1014.3
20260508093142 62 289 3.0 5.0 0.00 0.00 0.00 80 1014.5
20260508092639 62 105 3.0 5.0 0.00 0.00 0.00 80 1013.9
20260508092138 62 7 0.0 3.0 0.00 0.00 0.00 80 1014.4
20260508091634 62 349 3.0 3.0 0.00 0.00 0.00 80 1014.3
20260508091132 62 334 1.0 3.0 0.00 0.00 0.00 80 1014.3
20260508090630 62 351 1.0 4.0 0.00 0.00 0.00 81 1014.2
20260508090127 62 329 3.0 5.0 0.00 0.00 0.00 81 1014.7
20260508085622 62 333 3.0 5.0 0.00 0.00 0.00 80 1014.6
20260508085120 62 9 3.0 3.0 0.00 0.00 0.00 80 1014.2
20260508084616 62 341 3.0 5.0 0.00 0.00 0.00 80 1014.2
20260508084114 62 314 1.0 5.0 0.00 0.00 0.00 80 1014.2
20260508083611 62 14 2.0 5.0 0.00 0.00 0.00 80 1014.2
20260508083108 63 341 4.0 5.0 0.00 0.00 0.00 79 1014.3
20260508082603 63 4 2.0 3.0 0.00 0.00 0.00 79 1014.0
20260508082101 63 69 2.0 3.0 0.00 0.00 0.00 79 1014.3
20260508081558 63 334 2.0 3.0 0.00 0.00 0.00 79 1014.4
20260508081054 63 289 2.0 5.0 0.00 0.00 0.00 78 1014.7
20260508080552 63 305 2.0 3.0 0.00 0.00 0.00 78 1014.4
20260508080050 63 321 0.0 3.0 0.00 0.00 0.00 78 1015.0
20260508075546 63 323 3.0 3.0 0.00 0.00 0.00 77 1014.6
20260508075043 63 17 3.0 4.0 0.00 0.00 0.00 77 1014.4
20260508074541 63 302 1.0 3.0 0.00 0.00 0.00 77 1014.7
20260508074037 63 296 0.0 3.0 0.00 0.00 0.00 77 1014.5
20260508073535 63 327 2.0 5.0 0.00 0.00 0.00 77 1014.5
20260508073032 63 341 2.0 5.0 0.00 0.00 0.00 77 1014.7
20260508072528 63 2 2.0 5.0 0.00 0.00 0.00 76 1015.0
20260508072025 63 346 2.0 3.0 0.00 0.00 0.00 76 1015.2
20260508071523 63 4 3.0 4.0 0.00 0.00 0.00 76 1015.1
20260508071021 63 32 1.0 3.0 0.00 0.00 0.00 76 1014.7
20260508070518 63 60 2.0 3.0 0.00 0.00 0.00 76 1015.0
20260508070016 63 22 2.0 5.0 0.00 0.00 0.00 76 1015.1
20260508065514 63 2 3.0 4.0 0.00 0.00 0.00 76 1014.6
20260508065012 63 343 4.0 5.0 0.00 0.00 0.00 76 1014.4
20260508064509 63 342 5.0 5.0 0.00 0.00 0.00 77 1014.4
20260508064007 63 9 2.0 4.0 0.00 0.00 0.00 77 1014.3
20260508063504 63 334 3.0 3.0 0.00 0.00 0.00 77 1014.6
20260508063002 63 63 2.0 5.0 0.00 0.00 0.00 77 1015.2
20260508062459 63 5 0.0 3.0 0.00 0.00 0.00 76 1015.3
20260508061955 63 355 2.0 3.0 0.00 0.00 0.00 76 1015.5
20260508061454 63 73 3.0 3.0 0.00 0.00 0.00 76 1015.3
20260508060949 63 25 0.0 2.0 0.00 0.00 0.00 76 1015.5
20260508060447 63 12 2.0 3.0 0.00 0.00 0.00 76 1015.5
20260508055943 63 13 2.0 3.0 0.00 0.00 0.00 76 1015.4
20260508055440 63 354 3.0 3.0 0.00 0.00 0.00 76 1015.8
20260508054936 63 320 4.0 4.0 0.00 0.00 0.00 76 1015.8
20260508054434 63 54 0.0 3.0 0.00 0.00 0.00 76 1016.0
20260508053930 63 306 2.0 3.0 0.00 0.00 0.00 76 1015.7
20260508053427 63 303 3.0 5.0 0.00 0.00 0.00 76 1015.7
20260508052925 63 332 3.0 4.0 0.00 0.00 0.00 77 1015.8
20260508052422 63 272 2.0 5.0 0.00 0.00 0.00 77 1015.7
20260508051919 63 306 2.0 5.0 0.00 0.00 0.00 77 1015.8
20260508051415 62 288 6.0 8.0 0.00 0.00 0.00 77 1015.8
20260508050911 62 326 2.0 7.0 0.00 0.00 0.00 78 1015.3
20260508050408 62 34 3.0 6.0 0.00 0.00 0.00 78 1015.1
20260508045903 62 328 2.0 5.0 0.00 0.00 0.00 77 1015.4
20260508045402 63 327 4.0 5.0 0.00 0.00 0.00 76 1015.1
20260508044859 63 32 2.0 5.0 0.00 0.00 0.00 76 1015.0
20260508044355 62 352 3.0 5.0 0.00 0.00 0.00 77 1014.9
20260508043851 62 37 2.0 2.0 0.00 0.00 0.00 77 1014.6
20260508043348 62 36 2.0 3.0 0.00 0.00 0.00 78 1014.4
20260508042845 62 64 2.0 5.0 0.00 0.00 0.00 78 1014.4
20260508042343 62 47 2.0 3.0 0.00 0.00 0.00 78 1014.6
20260508041839 62 107 2.0 3.0 0.00 0.00 0.00 78 1014.7
20260508041336 63 84 2.0 4.0 0.00 0.00 0.00 77 1015.1
20260508040832 63 14 3.0 4.0 0.00 0.00 0.00 77 1015.3
20260508040330 63 12 3.0 4.0 0.00 0.00 0.00 77 1015.1
20260508035827 63 3 3.0 4.0 0.00 0.00 0.00 76 1015.7
20260508035324 63 12 2.0 5.0 0.00 0.00 0.00 76 1015.8
20260508034821 63 13 2.0 3.0 0.00 0.00 0.00 77 1015.9
20260508034318 63 67 1.0 3.0 0.00 0.00 0.00 77 1015.7
20260508033815 63 48 2.0 4.0 0.00 0.00 0.00 76 1015.8
20260508033313 63 1 2.0 4.0 0.00 0.00 0.00 76 1016.2
20260508032810 63 331 2.0 3.0 0.00 0.00 0.00 75 1016.1
20260508032308 63 281 3.0 5.0 0.00 0.00 0.00 76 1016.4
20260508031804 63 327 2.0 3.0 0.00 0.00 0.00 76 1016.4
20260508031301 63 340 2.0 4.0 0.00 0.00 0.00 76 1016.3